Regional Weather Roundup
Issued by NWS

Home | Current Version | Previous Version | Graphics & Text | Print | Product List | Glossary On
Versions: 1 2 3 4 5 6 7 8 9 10 11 12 13 14 15 16 17 18 19 20 21 22 23 24 25 26 27 28 29 30 31 32 33 34 35 36 37 38 39 40 41 42 43 44 45 46 47 48 49 50
000
ASUS43 KDMX 221301
RWRIA

WEATHER ROUNDUP FOR IOWA
NATIONAL WEATHER SERVICE DES MOINES IA
700 AM CST WED FEB 22 2017

NOTE: "FAIR" INDICATES FEW OR NO CLOUDS BELOW 12,000 FEET WITH NO
SIGNIFICANT WEATHER AND/OR OBSTRUCTIONS TO VISIBILITY.

* - THESE STATIONS ARE NOT NWS STATIONS...THUS NOT UNDER NWS
QUALITY CONTROL.  THEY ALSO DO NOT REPORT WEATHER SUCH
AS PRECIPITATION OR FOG.

IAZ001>003-012>014-020>022-031>034-043>046-221400-
   NORTHWEST IOWA

CITY           SKY/WX    TMP DP  RH WIND       PRES   REMARKS
CARROLL *        N/A     46  37  71 SW16      29.64F
CHEROKEE *       N/A     40  33  77 SW5       29.63R
DENISON *        N/A     43  34  70 CALM      29.63F
LE MARS *        N/A     36  32  87 CALM      29.64S
ORANGE CITY *    N/A     36  34  93 SW5       29.64R WCI  32
SHELDON *        N/A     37  37 100 SW8       29.63R WCI  31
SIOUX CITY       N/A     38  32  79 E5        29.63F WCI  34
SPENCER          N/A     33  31  92 W6        29.62R WCI  28
STORM LAKE *     N/A     45  34  65 SW14      29.63F
$$

IAZ055>058-069>071-079>083-090>094-221400-
   SOUTHWEST IOWA

CITY           SKY/WX    TMP DP  RH WIND       PRES   REMARKS
ATLANTIC *       N/A     41  36  81 SW7       29.69S
CLARINDA *       N/A     43  34  70 CALM      29.73F
COUNCIL BLFS *   N/A     50  36  57 SW7       29.67F
CRESTON *        N/A     41  34  75 S10       29.73F
HARLAN  *        N/A     39  37  93 S9        29.70F WCI  33
LAMONI           N/A     44  36  73 S10       29.74F
RED OAK *        N/A     41  34  75 SW3       29.70F
SHENANDOAH *     N/A     43  36  75 SE6       29.71F
$$

IAZ047>049-059>061-072>074-084-221400-
   CENTRAL IOWA

CITY           SKY/WX    TMP DP  RH WIND       PRES   REMARKS
AMES             N/A     43  37  79 SW8       29.66F
ANKENY *         N/A     50  32  50 S10       29.69F
BOONE *          N/A     48  36  61 SW12      29.65F
CHARITON *       N/A     48  37  66 S12       29.73S
DES MOINES       N/A     47  32  56 S9        29.70F
GRINNELL*        N/A     46  38  75 S14       29.72F
KNOXVILLE *      N/A     50  36  57 SW10      29.71F
MARSHALLTOWN     N/A     48  34  58 SW16      29.67S
NEWTON *         N/A     48  36  61 S13       29.70F
PELLA *          N/A     50  37  59 S9        29.74S
PERRY *          N/A     46  37  70 SW12      29.66F
$$

IAZ004>006-015-016-023>025-035-036-221400-
   NORTH CENTRAL IOWA

CITY           SKY/WX    TMP DP  RH WIND       PRES   REMARKS
ALGONA *         N/A     37  36  93 S10       29.61F WCI  30
CLARION *        N/A     37  36  93 S8        29.65F WCI  31
ESTHERVILLE      N/A     35  33  92 SW5       29.60R WCI  31
FORT DODGE *     N/A     43  34  70 S9        29.64F
MASON CITY       N/A     34  31  88 S7        29.64F WCI  28
FOREST CITY *    N/A     34  32  93 CALM      29.62S
WEBSTER CITY *   N/A     45  36  70 SW13      29.63F
IOWA FALLS *     N/A     44  35  71 SW10      29.66F
$$

IAZ007>011-017>019-026>030-037>042-050>054-066-221400-
   NORTHEAST IOWA

CITY           SKY/WX    TMP DP  RH WIND       PRES   REMARKS
CEDAR RAPIDS     N/A     46  45  96 S14       29.71F
CHARLES CITY *   N/A     39  36  87 S9        29.65F WCI  33
CLINTON *      LGT RAIN  49  49 100 S9        29.77F VSB 1/4
DECORAH *        N/A     43  34  70 S7        29.65F
DUBUQUE        FOG       43  43 100 S10       29.72F VSB 1/4
MONTICELLO *     N/A     45  45 100 S8        29.71F
OELWEIN *        N/A     39  36  87 S13       29.68F WCI  32
WATERLOO         N/A     44  33  65 S6        29.67F
$$

IAZ064-065-067-068-078-221400-
   EAST CENTRAL IOWA

CITY           SKY/WX    TMP DP  RH WIND       PRES   REMARKS
DAVENPORT      MOCLDY    52  51  97 S13       29.77F FOG
IOWA CITY      FOG       42  41  96 SE3       29.76F VSB 1/4
MUSCATINE *    FOG       46  46 100 VRB5      29.77F VSB<1/4
QUAD CITIES    FOG       54  52  93 SW10      29.77F VSB 1
$$

IAZ062-063-075>077-085>089-095>099-221400-
   SOUTHEAST IOWA

CITY           SKY/WX    TMP DP  RH WIND       PRES   REMARKS
BURLINGTON     FOG       53  53 100 SW10      29.78F VSB 1/4
FAIRFIELD *      N/A     50  50 100 S8        29.76S FOG
KEOKUK *       FOG       54  52  94 S9        29.79F VSB<1/4
OTTUMWA          N/A     47  45  93 S12       29.74F
WASHINGTON *     N/A     50  50 100 S12       29.77S
$$

ABBREVIATIONS USED IN REMARKS
   TC - TEMPERATURES IN CELSIUS
  WCI - WIND CHILL INDEX
   HX - HEAT INDEX
  VSB - VISIBILITY
$$





USA.gov is the U.S. government's official web portal to all federal, state and local government web resources and services.